ORANGE GROVE, NALF, TX

11:00 AM CST on November 12, 2019 (GMT -0600)
Orange Grove Naval Air Landing Field

Weather History for KNOG - October, 2019

Change the Weather History Date:

Saturday, October 12, 2019

  Actual Average (KALI) Record (KALI)
Temperature  
Mean Temperature 66 °F -  
Max Temperature 73 °F 83 °F 98 °F (2015)
Min Temperature 59 °F 62 °F 62 °F (1996)
Cooling Degree Days 1    
Growing Degree Days 16 (Base 50)    
Moisture  
Dew Point 33 °F    
Average Humidity 31    
Maximum Humidity 48    
Minimum Humidity 20    
Precipitation  
Precipitation 0.00 in - - ()
Sea Level Pressure  
Sea Level Pressure 30.10 in    
Wind  
Wind Speed 9 mph ()    
Max Wind Speed 16 mph    
Max Gust Speed 23 mph    
Visibility 10.0 miles    
Events      
Averages and records for this station are not official NWS values.
T = Trace of Precipitation, MM = Missing Value Source: Averaged Metar Reports

Daily Weather History Graph

Daily Weather History Graph

Search for Another Location

Airport or City:

Astronomy

Oct. 12, 2019 Rise Set
Actual Time 7:30 AM CDT 7:06 PM CDT
Civil Twilight 7:07 AM CDT 7:29 PM CDT
Nautical Twilight 6:39 AM CDT 7:56 PM CDT
Astronomical Twilight 6:12 AM CDT 8:24 PM CDT
Moon 6:52 PM CDT 6:22 AM CDT
Length of Visible Light 12h 22m
Length of Day
11h 35m
Waxing Gibbous, 99% of the Moon is Illuminated
Oct 12
Waxing Gibbous
Oct 13
Full
Oct 21
Last Quarter
Oct 27
New
Nov 4
First Quarter

Hourly Weather History & Observations

Time (CDT) Temp. Dew Point Humidity Pressure Visibility Wind Dir Wind Speed Gust Speed Precip Events Conditions
12:56 AM 59.0 °F 39.0 °F 48% 30.16 in 10.0 mi North 11.5 mph - N/A   Overcast
1:56 AM 60.1 °F 37.9 °F 44% 30.17 in 10.0 mi North 9.2 mph - N/A   Overcast
2:56 AM 60.1 °F 37.0 °F 42% 30.14 in 10.0 mi North 10.4 mph - N/A   Overcast
3:56 AM 61.0 °F 37.0 °F 41% 30.12 in 10.0 mi North 12.7 mph - N/A   Overcast
4:56 AM 62.1 °F 33.1 °F 34% 30.13 in 10.0 mi North 12.7 mph - N/A   Overcast
5:56 AM 61.0 °F 33.1 °F 35% 30.14 in 10.0 mi NNE 12.7 mph - N/A   Overcast
6:56 AM 61.0 °F 32.0 °F 34% 30.16 in 10.0 mi NNE 12.7 mph - N/A   Overcast
7:56 AM 61.0 °F 32.0 °F 34% 30.17 in 10.0 mi NNE 12.7 mph - N/A   Overcast
8:56 AM 62.1 °F 32.0 °F 32% 30.17 in 10.0 mi North 16.1 mph - N/A   Overcast
9:56 AM 62.1 °F 30.9 °F 31% 30.18 in 10.0 mi North 12.7 mph - N/A   Overcast
10:56 AM 64.0 °F 30.9 °F 29% 30.18 in 10.0 mi North 12.7 mph - N/A   Overcast
11:56 AM 66.0 °F 30.0 °F 26% 30.17 in 10.0 mi North 15.0 mph 23.0 mph N/A   Overcast
12:56 PM 66.9 °F 30.0 °F 25% 30.15 in 10.0 mi NNW 13.8 mph 19.6 mph N/A   Overcast
1:56 PM 69.1 °F 30.0 °F 23% 30.11 in 10.0 mi NNW 9.2 mph - N/A   Overcast
2:56 PM 70.0 °F 28.9 °F 22% 30.06 in 10.0 mi NNW 6.9 mph - N/A   Overcast
3:56 PM 73.0 °F 30.0 °F 20% 30.04 in 10.0 mi North 5.8 mph - N/A   Overcast
4:56 PM 73.0 °F 30.0 °F 20% 30.02 in 10.0 mi NNE 6.9 mph - N/A   Overcast
5:56 PM 72.0 °F 30.0 °F 21% 30.00 in 10.0 mi NNE 6.9 mph - N/A   Overcast
6:56 PM 71.1 °F 32.0 °F 24% 29.99 in 10.0 mi NNW 6.9 mph - N/A   Overcast
7:56 PM 70.0 °F 35.1 °F 28% 30.00 in 10.0 mi Calm Calm - N/A   Overcast
8:56 PM 71.1 °F 37.0 °F 29% 30.00 in 10.0 mi Calm Calm - N/A   Overcast
9:56 PM - - N/A% 30.07 in 10.0 mi Calm Calm - N/A   Overcast
10:56 PM - - N/A% 30.07 in 10.0 mi Calm Calm - N/A   Overcast
11:56 PM - - N/A% 30.05 in 10.0 mi Calm Calm - N/A   Overcast